SL-16 DEB, 39714

Orbit data source: Space-Track

SL-16 DEB, 39714 is space debris in LEO originally from a launch on Fri, 25 Dec 1992 UTC launched from the Tyuratam Missile And Space Complex (TTMTR). Debris objects in space refer to the collection of defunct objects orbiting the Earth. Examples of debris include non-operational satellites, rocket bodies, and fragments generated from explosions, collisions, or faulty payload assembly.

Loading next visibility...
Identifier
39714, 1992-093KE
Orbit
LEO
Country
Flag of CISCIS
Related business
Manufacturer
Unknown
Mission
Spacecraft
Bus & Motor
Unknown
Mass
Unknown
Launch date (UTC)
1992-12-25 (33 years ago)
Launch vehicle
Unknown
Launch site
Tyuratam Missile And Space Complex (TTMTR)
Object type
Payload
Rocket body
Debris
Shape & HBR
Unknown shape, 0.1 m
Radar Cross Section
Small (<0.1 m²)

Expand to show TLE details & history
Last TLE update: 19 hours ago

TLE from 19 hours ago
0 SL-16 DEB
1 39714U 92093KE  25304.30691778  .00000597  00000-0  26497-3 0  9994
2 39714  71.0818 151.0311 0091746 141.5855 219.1854 14.24690515620004
Epoch: 2025-10-31T07:21Z
TLE epoch observation values (Epoch: 2025-10-31T07:21:57.696Z)
Latitude
-0.00003°
Longitude
0.68745°
Altitude
863.311 km
Speed
7.395 km/s
True Right ascension
10h 04m 07s
True Declination
0° 00' 00"
Sunlit
Object was in daylight at epoch
Visualization orbit readout
Latitude
Unknown
Longitude
Unknown
Altitude
Unknown
Speed
Unknown
Apparent Right ascension
Unknown
Apparent Declination
Unknown
Sunlit
N/A
Visualization observer readout
Local Sidereal Time
21:34:15
Azimuth
Unknown
Elevation
Unknown
Doppler factor
Unknown
Orbital elements
Apogee altitude
873.365 km
Perigee altitude
741.516 km
Semi-major axis
7,185.577 km
Eccentricity
0.00917
Inclination
71.0818°
RAAN
151.0311°
Arg. of periapsis
141.5855°
True anomaly
218.527°
Mean anomaly
219.1854°
Eccentric anomaly
218.85562°
Mean motion
3.56329 °/min
Orbital period
101.03 mins
BSTAR
0.00026497
Loading maneuver chart data...
Computing Atmospheric mass density...
Loading historical data...
Loading historical data...
Loading historical data...
Loading historical data...
Loading historical data...
Loading historical data...
Loading historical data...

Documentation

Showing up to 5 results
|